Weather History for KJMR - December, 2012

Change the Weather History Date:

Wednesday, December 5, 2012

  Actual Average Record
Temperature  
Mean Temperature 24 °F -  
Max Temperature 35 °F 28 °F 53 °F (2001)
Min Temperature 12 °F 6 °F -22 °F (1984)
Degree Days  
Heating Degree Days 42    
Moisture  
Dew Point 13 °F    
Average Humidity 64    
Maximum Humidity 86    
Minimum Humidity 48    
Precipitation  
Precipitation 0.00 in - - ()
Sea Level Pressure  
Sea Level Pressure 30.18 in    
Wind  
Wind Speed 5 mph (SE)    
Max Wind Speed 16 mph    
Max Gust Speed 21 mph    
Visibility 10 miles    
Events      
Averages and records for this station are not official NWS values.
T = Trace of Precipitation, MM = Missing Value Source: NWS Daily Summary

Daily Weather History Graph

Daily Weather History Graph

Search for Another Location

Airport or City:

Trip Planner

Search our weather history database for the weather conditions in past years. The results will help you decide how hot, cold, wet, or windy it might be!

Date:

Astronomy

Dec. 05, 2012 Rise Set
Actual Time 7:39 AM CST 4:28 PM CST
Civil Twilight 7:05 AM CST 5:02 PM CST
Nautical Twilight 6:27 AM CST 5:40 PM CST
Astronomical Twilight 5:51 AM CST 6:16 PM CST
Moon 11:35 PM CST (12/5) 11:48 AM CST (12/5)
Length of Visible Light 9h 57m
Length of Day
8h 49m
Waning Gibbous, 59% of the Moon is Illuminated
Dec 5
Waning Gibbous
Dec 6
Last Quarter
Dec 13
New
Dec 19
First Quarter
Dec 28
Full

Hourly Weather History & Observations

Time (CST) Temp. Windchill Dew Point Humidity Pressure Visibility Wind Dir Wind Speed Gust Speed Precip Events Conditions
12:01 AM 17.6 °F 12.3 °F 10.4 °F 73% 30.42 in 10.0 mi NNW 3.5 mph - N/A   Clear
12:21 AM 14.0 °F - 8.6 °F 79% 30.41 in 10.0 mi Calm Calm - N/A   Clear
12:42 AM 15.8 °F - 10.4 °F 79% 30.40 in 10.0 mi Calm Calm - N/A   Clear
1:01 AM 14.0 °F - 8.6 °F 79% 30.40 in 10.0 mi Calm Calm - N/A   Clear
1:22 AM 14.0 °F - 8.6 °F 79% 30.40 in 10.0 mi Calm Calm - N/A   Clear
2:02 AM 12.2 °F - 6.8 °F 79% 30.39 in 10.0 mi Calm Calm - N/A   Clear
2:22 AM 12.2 °F - 8.6 °F 85% 30.41 in 10.0 mi Calm Calm - N/A   Clear
2:41 AM 12.2 °F - 8.6 °F 85% 30.41 in 7.0 mi Calm Calm - N/A   Clear
3:02 AM 12.2 °F - 8.6 °F 85% 30.42 in 10.0 mi Calm Calm - N/A   Clear
3:21 AM 12.2 °F - 8.6 °F 85% 30.42 in 10.0 mi Calm Calm - N/A   Clear
3:42 AM 12.2 °F - 8.6 °F 85% 30.40 in 10.0 mi Calm Calm - N/A   Clear
4:01 AM 12.2 °F - 8.6 °F 85% 30.39 in 10.0 mi Calm Calm - N/A   Clear
4:22 AM 12.2 °F - 8.6 °F 85% 30.39 in 10.0 mi Calm Calm - N/A   Clear
4:42 AM 12.2 °F 6.1 °F 8.6 °F 85% 30.38 in 10.0 mi East 3.5 mph - N/A   Clear
5:01 AM 14.0 °F 8.2 °F 10.4 °F 86% 30.38 in 10.0 mi ESE 3.5 mph - N/A   Clear
5:22 AM 14.0 °F - 10.4 °F 86% 30.38 in 10.0 mi Calm Calm - N/A   Clear
5:41 AM 14.0 °F - 8.6 °F 79% 30.39 in 10.0 mi Calm Calm - N/A   Clear
6:02 AM 14.0 °F - 8.6 °F 79% 30.38 in 10.0 mi Calm Calm - N/A   Clear
6:21 AM 12.2 °F - 8.6 °F 85% 30.39 in 10.0 mi Calm Calm - N/A   Clear
6:41 AM 12.2 °F - 8.6 °F 85% 30.39 in 10.0 mi Calm Calm - N/A   Clear
7:02 AM 12.2 °F - 8.6 °F 85% 30.38 in 10.0 mi Calm Calm - N/A   Clear
8:42 AM 14.0 °F 6.5 °F 10.4 °F 86% 30.35 in 10.0 mi ESE 4.6 mph - N/A   Clear
9:02 AM 17.6 °F 10.7 °F 12.2 °F 79% 30.36 in 10.0 mi SE 4.6 mph - N/A   Clear
9:22 AM 17.6 °F 8.2 °F 12.2 °F 79% 30.34 in 10.0 mi SE 6.9 mph - N/A   Clear
9:41 AM 17.6 °F 8.2 °F 12.2 °F 79% 30.34 in 10.0 mi SE 6.9 mph - N/A   Clear
10:02 AM 19.4 °F 11.5 °F 12.2 °F 74% 30.34 in 10.0 mi SSE 5.8 mph - N/A   Clear
10:21 AM 21.2 °F 11.7 °F 14.0 °F 74% 30.34 in 10.0 mi SE 8.1 mph - N/A   Clear
10:41 AM 23.0 °F 12.4 °F 14.0 °F 68% 30.32 in 10.0 mi SE 10.4 mph - N/A   Clear
11:02 AM 24.8 °F 15.3 °F 15.8 °F 69% 30.30 in 10.0 mi ESE 9.2 mph - N/A   Clear
11:22 AM 26.6 °F 17.5 °F 17.6 °F 69% 30.27 in 10.0 mi SE 9.2 mph 16.1 mph N/A   Clear
11:42 AM 26.6 °F 16.8 °F 15.8 °F 64% 30.25 in 10.0 mi ESE 10.4 mph - N/A   Clear
12:01 PM 26.6 °F 16.2 °F 14.0 °F 59% 30.24 in 10.0 mi SE 11.5 mph 17.3 mph N/A   Clear
12:22 PM 26.6 °F 16.8 °F 14.0 °F 59% 30.23 in 10.0 mi SE 10.4 mph 16.1 mph N/A   Clear
12:42 PM 30.2 °F 20.8 °F 14.0 °F 51% 30.21 in 10.0 mi SE 11.5 mph 16.1 mph N/A   Clear
1:02 PM 30.2 °F 22.6 °F 14.0 °F 51% 30.19 in 10.0 mi SE 8.1 mph - N/A   Clear
1:22 PM 32.0 °F 23.0 °F 14.0 °F 48% 30.17 in 10.0 mi SE 11.5 mph - N/A   Clear
1:42 PM 32.0 °F 23.0 °F 14.0 °F 48% 30.16 in 10.0 mi ESE 11.5 mph 16.1 mph N/A   Clear
2:02 PM 32.0 °F 22.5 °F 14.0 °F 48% 30.14 in 10.0 mi SE 12.7 mph - N/A   Clear
2:22 PM 32.0 °F 22.5 °F 14.0 °F 48% 30.13 in 10.0 mi SE 12.7 mph 17.3 mph N/A   Mostly Cloudy
2:42 PM 32.0 °F 23.0 °F 14.0 °F 48% 30.11 in 10.0 mi SE 11.5 mph 16.1 mph N/A   Overcast
3:01 PM 32.0 °F 24.2 °F 14.0 °F 48% 30.10 in 10.0 mi SE 9.2 mph - N/A   Overcast
3:22 PM 32.0 °F 22.5 °F 14.0 °F 48% 30.08 in 10.0 mi SE 12.7 mph 20.7 mph N/A   Overcast
3:42 PM 32.0 °F 23.0 °F 14.0 °F 48% 30.07 in 10.0 mi SE 11.5 mph 20.7 mph N/A   Mostly Cloudy
4:02 PM 32.0 °F 21.6 °F 14.0 °F 48% 30.05 in 10.0 mi SE 15.0 mph 18.4 mph N/A   Clear
4:22 PM 32.0 °F 24.8 °F 14.0 °F 48% 30.04 in 10.0 mi SE 8.1 mph - N/A   Clear
4:42 PM 32.0 °F 23.0 °F 14.0 °F 48% 30.03 in 10.0 mi SE 11.5 mph 16.1 mph N/A   Clear
5:02 PM 32.0 °F 23.6 °F 14.0 °F 48% 30.02 in 10.0 mi SE 10.4 mph - N/A   Clear
5:22 PM 32.0 °F 24.8 °F 14.0 °F 48% 30.01 in 10.0 mi SSE 8.1 mph - N/A   Clear
5:42 PM 32.0 °F 24.8 °F 14.0 °F 48% 29.99 in 10.0 mi SE 8.1 mph - N/A   Scattered Clouds
6:02 PM 32.0 °F 24.2 °F 14.0 °F 48% 29.99 in 10.0 mi SE 9.2 mph - N/A   Mostly Cloudy
6:22 PM 32.0 °F 24.8 °F 14.0 °F 48% 29.97 in 10.0 mi SE 8.1 mph - N/A   Scattered Clouds
6:42 PM 32.0 °F 24.2 °F 14.0 °F 48% 29.97 in 10.0 mi SE 9.2 mph - N/A   Clear
7:02 PM 32.0 °F 25.6 °F 14.0 °F 48% 29.95 in 10.0 mi SSE 6.9 mph - N/A   Clear
7:22 PM 32.0 °F 24.2 °F 15.8 °F 51% 29.94 in 10.0 mi SSE 9.2 mph - N/A   Clear
7:42 PM 32.0 °F 24.8 °F 15.8 °F 51% 29.93 in 10.0 mi SSE 8.1 mph - N/A   Clear
8:02 PM 32.0 °F 24.8 °F 17.6 °F 55% 29.93 in 10.0 mi SSE 8.1 mph - N/A   Scattered Clouds
8:22 PM 33.8 °F 25.8 °F 17.6 °F 52% 29.93 in 10.0 mi South 10.4 mph 17.3 mph N/A   Mostly Cloudy
8:42 PM 33.8 °F 26.4 °F 17.6 °F 52% 29.92 in 10.0 mi SSE 9.2 mph 16.1 mph N/A   Overcast
9:02 PM 33.8 °F 23.5 °F 17.6 °F 52% 29.91 in 10.0 mi South 16.1 mph - N/A   Overcast
9:21 PM 33.8 °F 23.9 °F 17.6 °F 52% 29.90 in 10.0 mi SSE 15.0 mph 19.6 mph N/A   Scattered Clouds
9:42 PM 33.8 °F 25.8 °F 19.4 °F 56% 29.90 in 10.0 mi South 10.4 mph - N/A   Mostly Cloudy
10:01 PM 33.8 °F 25.8 °F 19.4 °F 56% 29.89 in 10.0 mi South 10.4 mph 18.4 mph N/A   Overcast
10:22 PM 33.8 °F 24.8 °F 19.4 °F 56% 29.87 in 10.0 mi South 12.7 mph 16.1 mph N/A   Overcast
10:42 PM 35.6 °F 28.0 °F 21.2 °F 56% 29.86 in 10.0 mi SSE 10.4 mph 17.3 mph N/A   Overcast
11:02 PM 35.6 °F 28.6 °F 21.2 °F 56% 29.86 in 10.0 mi SSE 9.2 mph 18.4 mph N/A   Mostly Cloudy
11:22 PM 35.6 °F 27.5 °F 21.2 °F 56% 29.85 in 10.0 mi South 11.5 mph 19.6 mph N/A   Mostly Cloudy
11:42 PM 35.6 °F 28.0 °F 21.2 °F 56% 29.85 in 10.0 mi South 10.4 mph 19.6 mph N/A   Overcast